Regional Weather Roundup
Issued by NWS

Home | Current Version | Previous Version | Graphics & Text | Print | Product List | Glossary On
Versions: 1 2 3 4 5 6 7 8 9 10 11 12 13 14 15 16 17 18 19 20 21 22 23 24 25 26 27 28 29 30 31 32 33 34 35 36 37 38 39 40 41 42 43 44 45 46 47 48 49 50
000
ASUS43 KLOT 301306
RWRIL

ILLINOIS REGIONAL WEATHER ROUNDUP
NATIONAL WEATHER SERVICE CHICAGO/ROMEOVILLE IL
800 AM CDT THU OCT 30 2014

NOTE: "FAIR" INDICATES FEW OR NO CLOUDS BELOW 12,000 FEET WITH NO
SIGNIFICANT WEATHER AND/OR OBSTRUCTIONS TO VISIBILITY.

* THESE STATIONS ARE NOT UNDER NWS QUALITY CONTROL. THEY ALSO MAY NOT
  REPORT WEATHER SUCH AS PRECIPITATION OR FOG.

ILZ001-002-007-009-015-016-024-301400-
NORTHWEST ILLINOIS

CITY           SKY/WX    TMP DP  RH WIND       PRES   REMARKS
MOLINE         MOCLDY    34  31  88 E3        30.10F
STERLING*      MOCLDY    32  27  80 CALM      30.12S
SAVANNA*       CLOUDY    33  32  95 CALM      30.11F
$$

ILZ003-004-008-010-011-017-018-301400-
NORTH CENTRAL ILLINOIS

CITY           SKY/WX    TMP DP  RH WIND       PRES   REMARKS
ROCKFORD       CLOUDY    33  30  88 CALM      30.14R
FREEPORT*      CLOUDY    35  31  87 SW5       30.13S WCI  31
ROCHELLE*      MOCLDY    32  30  93 CALM      30.13S
DE KALB*       MOCLDY    31  29  93 S3        30.13S
PERU*          MOCLDY    34  32  92 S5        30.14S WCI  30
$$

ILZ005-006-012>014-019>023-301400-
NORTHEAST ILLINOIS

CITY           SKY/WX    TMP DP  RH WIND       PRES   REMARKS
CHICAGO-OHARE  MOCLDY    34  31  88 CALM      30.13S
CHICAGO-MIDWAY MOCLDY    39  34  82 S3        30.14S
AURORA         PTCLDY    32  28  85 CALM      30.14S
LANSING*       PTCLDY    32  31  98 CALM      30.15S
JOLIET*        PTCLDY    31  30  98 CALM      30.14F
WAUKEGAN       PTCLDY    33  31  92 SW3       30.11F
DUPAGE AIRPORT MOCLDY    33  30  88 CALM      30.13S
KANKAKEE*      PTCLDY    32  31  96 CALM      30.16S
WHEELING       PTCLDY    35  31  85 S3        30.15S
MORRIS*        PTCLDY    32  32 100 CALM      30.14S
ROMEOVILLE*    PTCLDY    32  32 100 S5        30.14S FOG     WCI  27
NORTHERLY ISL    N/A     42  33  70 SW3         N/A
$$

LMZ740>746-301400-
SOUTHERN LAKE MICHIGAN

STATION/POSITION SKY/WX   TEMP    WIND        PRES    VSBY  WAVE
                          AIR SEA DIR/SP/G                  HT/PER
                          (F)     (DEG/KT/KT) (MB)    (MI)  (FT/S)
SOUTHERN BUOY              48 53  220/ 10/ 12 1020.2F         1/ 5
WAUKEGAN HARBOR            39     260/  5/  6   N/A
HARRISON CRIB              44     270/  8/  9   N/A
BURNHAM HARBOR             41     220/  4/  6   N/A
CALUMET HARBOR             38     220/  2/  5 1019.5S
MICHIGAN CITY              42     180/  9/ 10   N/A
$$

ILZ025>027-034>036-040-047-049-050-058-095>099-301400-
WEST-CENTRAL ILLINOIS

CITY           SKY/WX    TMP DP  RH WIND       PRES   REMARKS
QUINCY         CLOUDY    43  35  73 SE7       30.10S
GALESBURG*     MOCLDY    35  33  92 CALM      30.11F
MACOMB*        PTCLDY    32  31  97 CALM      30.13S
JACKSONVILLE*  PTCLDY    43  37  79 S9        30.13S
PITTSFIELD*    CLOUDY    42  38  86 SE3       30.13S
$$

ILZ028>032-037-038-041>044-048-051>054-059>061-301400-
CENTRAL ILLINOIS

CITY           SKY/WX    TMP DP  RH WIND       PRES   REMARKS
PONTIAC        PTCLDY    32  31  97 SE3       30.16S
BLOOMINGTON    PTCLDY    35  33  92 S6        30.15F WCI  30
DECATUR        CLEAR     34  32  92 CALM      30.16S
PEORIA         MOCLDY    38  33  82 CALM      30.14F
LACON*         PTCLDY    32  30  94 CALM      30.13S
LINCOLN*       PTCLDY    33  32  97 CALM      30.15F
SPRINGFIELD    PTCLDY    38  34  85 S7        30.15S WCI  33
TAYLORVILLE    CLEAR     34  32  93 SE5       30.15S WCI  30
$$

ILZ033-039-045-046-055>057-062-063-301400-
EAST-CENTRAL ILLINOIS

CITY           SKY/WX    TMP DP  RH WIND       PRES   REMARKS
CHAMPAIGN      CLEAR     33  30  88 S5        30.16S WCI  29
DANVILLE*      CLEAR     32  31  99 CALM      30.14S
RANTOUL*       CLEAR     33  31  95 CALM      30.16S
MATTOON        CLEAR     34  32  92 S3        30.16R
PARIS*         CLEAR     31  31 100 CALM      30.18F
$$

ILZ079-100>102-301400-
SOUTHWEST ILLINOIS

CITY           SKY/WX    TMP DP  RH WIND       PRES   REMARKS
ALTON          PTCLDY    34  34 100 E6        30.15F WCI  29
BELLEVILLE     CLEAR     35  35  99 CALM      30.16S
CAHOKIA*       CLEAR     37  36  96 CALM      30.15F
SPARTA*        CLEAR     37  35  94 SE3       30.18S
$$

ILZ064>066-069>071-074>076-080>082-084>086-088>090-092>094-301400-
SOUTH-CENTRAL ILLINOIS

CITY           SKY/WX    TMP DP  RH WIND       PRES   REMARKS
CARBONDALE     CLEAR     33  32  96 CALM      30.18S
CAIRO*         CLEAR     37  35  91 CALM      30.18S
EFFINGHAM*       N/A     33  32  94 CALM      30.18S
MARION         CLEAR     36  36 100 MISG      30.19R
MT. VERNON     CLEAR     32  27  80 CALM      30.18R
CENTRALIA*     CLEAR     35  33  92 CALM      30.17S
SALEM*         CLEAR     38  37  95 CALM      30.18R
METROPOLIS*    CLEAR     35  35 100 CALM      30.17S
$$

ILZ067-068-072-073-078-083-087-091-301400-
SOUTHEAST ILLINOIS

CITY           SKY/WX    TMP DP  RH WIND       PRES   REMARKS
LAWRENCEVILLE  CLEAR     36  32  85 CALM      30.19R
FLORA*         CLEAR     34  34 100 CALM      30.18F
FAIRFIELD*     CLEAR     35  35  99 CALM      30.17S FOG
HARRISBURG*    CLEAR     34  34 100 CALM      30.20R
ROBINSON*        N/A     33  33 100 CALM      30.19S FOG
CARMI*         CLEAR     36  36 100 CALM      30.18S
$$

ABBREVIATIONS USED IN REMARKS
   TC - TEMPERATURE IN CELSIUS
  WCI - WIND CHILL INDEX
   HX - HEAT INDEX
  VSB - VISIBILITY
$$




USA.gov is the U.S. government's official web portal to all federal, state and local government web resources and services.